| time (UTC) | temp F | wind direction | speed MPH | gust MPH | rain 1hr in | rain 24hr in | rain mn in | humidity % | barometer mb |
| 20260903021559 | 68 | 0 | 0.0 | 0.0 | 0.00 | 0.00 | 0.00 | 100 | 1019.1 |
| 20260903020100 | 68 | 0 | 0.0 | 3.0 | 0.00 | 0.00 | 0.00 | 100 | 1019.0 |
| 20260903014603 | 68 | 74 | 0.0 | 3.0 | 0.00 | 0.00 | 0.00 | 100 | 1018.7 |
| 20260903013056 | 68 | 0 | 0.0 | 4.0 | 0.00 | 0.00 | 0.00 | 100 | 1018.7 |
| 20260903011602 | 68 | 0 | 0.0 | 4.0 | 0.00 | 0.00 | 0.00 | 100 | 1018.8 |
| 20260903004557 | 69 | 0 | 0.0 | 4.0 | 0.00 | 0.00 | 0.00 | 100 | 1019.3 |
| 20260903003055 | 69 | 0 | 0.0 | 4.0 | 0.00 | 0.00 | 0.00 | 100 | 1019.1 |
| 20260903001600 | 69 | 0 | 0.0 | 0.0 | 0.00 | 0.00 | 0.00 | 100 | 1018.8 |
| 20260903000059 | 69 | 0 | 0.0 | 6.0 | 0.00 | 0.00 | 0.00 | 100 | 1018.5 |
| 20260902234605 | 69 | 0 | 0.0 | 0.0 | 0.00 | 0.00 | 0.00 | 100 | 1018.5 |
| 20260902233054 | 69 | 0 | 0.0 | 0.0 | 0.00 | 0.00 | 0.00 | 99 | 1018.5 |
| 20260902231602 | 69 | 0 | 0.0 | 0.0 | 0.00 | 0.00 | 0.00 | 99 | 1018.5 |
| 20260902230056 | 69 | 0 | 1.0 | 6.0 | 0.00 | 0.00 | 0.00 | 99 | 1018.5 |
| 20260902224603 | 69 | 0 | 0.0 | 5.0 | 0.00 | 0.00 | 0.00 | 99 | 1018.6 |
| 20260902223107 | 69 | 0 | 0.0 | 4.0 | 0.00 | 0.00 | 0.00 | 99 | 1018.9 |
| 20260902221557 | 70 | 0 | 0.0 | 4.0 | 0.00 | 0.00 | 0.00 | 99 | 1019.1 |
| 20260902214602 | 70 | 0 | 0.0 | 3.0 | 0.00 | 0.00 | 0.00 | 99 | 1019.2 |
| 20260902213106 | 70 | 0 | 0.0 | 5.0 | 0.00 | 0.00 | 0.00 | 99 | 1019.3 |
| 20260902211608 | 70 | 0 | 0.0 | 4.0 | 0.00 | 0.00 | 0.00 | 99 | 1018.8 |
| 20260902210106 | 70 | 49 | 1.0 | 6.0 | 0.00 | 0.00 | 0.00 | 99 | 1018.9 |
| 20260902204605 | 70 | 66 | 0.0 | 3.0 | 0.00 | 0.00 | 0.00 | 99 | 1018.7 |
| 20260902203106 | 70 | 0 | 0.0 | 3.0 | 0.00 | 0.00 | 0.00 | 99 | 1018.8 |
| 20260902201609 | 70 | 0 | 0.0 | 6.0 | 0.00 | 0.00 | 0.00 | 99 | 1019.1 |
| 20260902200104 | 69 | 80 | 2.0 | 9.0 | 0.00 | 0.00 | 0.00 | 99 | 1018.9 |
| 20260902194604 | 69 | 0 | 1.0 | 9.0 | 0.00 | 0.00 | 0.00 | 99 | 1018.9 |
| 20260902193103 | 70 | 0 | 0.0 | 4.0 | 0.00 | 0.00 | 0.00 | 100 | 1019.2 |
| 20260902191602 | 69 | 0 | 0.0 | 3.0 | 0.00 | 0.00 | 0.00 | 99 | 1019.3 |
| 20260902190057 | 69 | 0 | 0.0 | 0.0 | 0.00 | 0.00 | 0.00 | 99 | 1019.6 |
| 20260902184559 | 69 | 0 | 0.0 | 0.0 | 0.00 | 0.00 | 0.00 | 99 | 1019.9 |
| 20260902183107 | 69 | 0 | 0.0 | 0.0 | 0.00 | 0.00 | 0.00 | 99 | 1020.1 |
| 20260902181556 | 69 | 0 | 0.0 | 0.0 | 0.00 | 0.00 | 0.00 | 99 | 1020.4 |
| 20260902174600 | 69 | 0 | 0.0 | 0.0 | 0.00 | 0.00 | 0.00 | 99 | 1020.2 |
| 20260902173106 | 69 | 0 | 0.0 | 3.0 | 0.00 | 0.00 | 0.00 | 99 | 1020.3 |
| 20260902171610 | 69 | 0 | 0.0 | 3.0 | 0.00 | 0.00 | 0.00 | 100 | 1020.2 |
| 20260902170058 | 69 | 0 | 1.0 | 6.0 | 0.00 | 0.00 | 0.00 | 100 | 1020.7 |
| 20260902164556 | 69 | 0 | 0.0 | 0.0 | 0.00 | 0.00 | 0.00 | 100 | 1020.8 |
| 20260902163101 | 69 | 0 | 0.0 | 0.0 | 0.00 | 0.00 | 0.00 | 100 | 1020.7 |
| 20260902161600 | 68 | 0 | 0.0 | 0.0 | 0.00 | 0.00 | 0.00 | 100 | 1021.1 |
| 20260902160114 | 68 | 0 | 0.0 | 6.0 | 0.00 | 0.00 | 0.00 | 100 | 1020.8 |
| 20260902154607 | 68 | 0 | 0.0 | 8.0 | 0.00 | 0.00 | 0.00 | 100 | 1020.6 |
| 20260902153100 | 69 | 0 | 0.0 | 6.0 | 0.00 | 0.00 | 0.00 | 100 | 1020.6 |
| 20260902151604 | 68 | 0 | 0.0 | 3.0 | 0.00 | 0.00 | 0.00 | 100 | 1020.7 |
| 20260902144617 | 68 | 0 | 0.0 | 0.0 | 0.00 | 0.00 | 0.00 | 100 | 1020.7 |
| 20260902143103 | 68 | 82 | 2.0 | 8.0 | 0.00 | 0.00 | 0.00 | 100 | 1020.8 |
| 20260902141601 | 68 | 84 | 2.0 | 7.0 | 0.00 | 0.00 | 0.00 | 100 | 1020.6 |
| 20260902134559 | 68 | 0 | 2.0 | 8.0 | 0.00 | 0.00 | 0.00 | 100 | 1020.5 |
| 20260902133109 | 68 | 0 | 0.0 | 6.0 | 0.00 | 0.00 | 0.00 | 100 | 1020.5 |
| 20260902131601 | 68 | 0 | 2.0 | 7.0 | 0.00 | 0.00 | 0.00 | 100 | 1020.3 |
| 20260902130059 | 68 | 0 | 0.0 | 6.0 | 0.00 | 0.00 | 0.00 | 100 | 1020.0 |
| 20260902124555 | 68 | 102 | 0.0 | 7.0 | 0.00 | 0.00 | 0.00 | 100 | 1020.1 |
| 20260902123111 | 67 | 96 | 0.0 | 6.0 | 0.00 | 0.00 | 0.00 | 100 | 1019.9 |
| 20260902121603 | 67 | 0 | 0.0 | 0.0 | 0.00 | 0.00 | 0.00 | 100 | 1019.9 |
| 20260902120123 | 67 | 83 | 0.0 | 7.0 | 0.00 | 0.00 | 0.00 | 100 | 1019.9 |
| 20260902114555 | 67 | 0 | 0.0 | 6.0 | 0.00 | 0.00 | 0.00 | 100 | 1019.6 |
| 20260902113104 | 67 | 78 | 0.0 | 6.0 | 0.00 | 0.00 | 0.00 | 100 | 1019.6 |
| 20260902111556 | 67 | 0 | 0.0 | 0.0 | 0.00 | 0.00 | 0.00 | 100 | 1019.6 |
| 20260902110104 | 67 | 0 | 0.0 | 4.0 | 0.00 | 0.00 | 0.00 | 100 | 1019.9 |
| 20260902104609 | 67 | 101 | 0.0 | 7.0 | 0.00 | 0.00 | 0.00 | 100 | 1019.7 |
| 20260902103100 | 67 | 0 | 3.0 | 9.0 | 0.00 | 0.00 | 0.00 | 100 | 1019.5 |
| 20260902101555 | 68 | 0 | 0.0 | 4.0 | 0.00 | 0.00 | 0.00 | 99 | 1019.3 |
| 20260902100056 | 68 | 89 | 1.0 | 5.0 | 0.00 | 0.00 | 0.00 | 99 | 1019.3 |
| 20260902094600 | 68 | 0 | 0.0 | 0.0 | 0.00 | 0.00 | 0.00 | 99 | 1019.3 |
| 20260902093105 | 68 | 0 | 0.0 | 3.0 | 0.00 | 0.00 | 0.00 | 99 | 1019.4 |
| 20260902091602 | 68 | 0 | 0.0 | 0.0 | 0.00 | 0.00 | 0.00 | 99 | 1019.1 |
| 20260902090101 | 68 | 84 | 0.0 | 7.0 | 0.00 | 0.00 | 0.00 | 99 | 1018.8 |
| 20260902084606 | 68 | 94 | 1.0 | 8.0 | 0.00 | 0.00 | 0.00 | 99 | 1018.7 |
| 20260902083108 | 68 | 0 | 1.0 | 8.0 | 0.00 | 0.00 | 0.00 | 99 | 1018.5 |
| 20260902081558 | 69 | 0 | 1.0 | 4.0 | 0.00 | 0.00 | 0.00 | 99 | 1018.3 |
| 20260902080112 | 69 | 0 | 0.0 | 8.0 | 0.00 | 0.00 | 0.00 | 99 | 1018.3 |
| 20260902074555 | 69 | 0 | 1.0 | 9.0 | 0.00 | 0.00 | 0.00 | 99 | 1018.1 |
| 20260902073052 | 69 | 0 | 1.0 | 4.0 | 0.00 | 0.00 | 0.00 | 99 | 1018.1 |
| 20260902071603 | 70 | 71 | 0.0 | 6.0 | 0.00 | 0.00 | 0.00 | 99 | 1017.9 |
| 20260902070058 | 70 | 0 | 1.0 | 5.0 | 0.00 | 0.00 | 0.00 | 99 | 1018.1 |
| 20260902064603 | 70 | 108 | 1.0 | 8.0 | 0.00 | 0.00 | 0.00 | 98 | 1018.0 |
| 20260902063105 | 71 | 79 | 0.0 | 5.0 | 0.00 | 0.00 | 0.00 | 99 | 1017.9 |
| 20260902061613 | 71 | 0 | 0.0 | 6.0 | 0.00 | 0.00 | 0.00 | 99 | 1017.8 |
| 20260902060118 | 71 | 0 | 0.0 | 5.0 | 0.00 | 0.00 | 0.00 | 98 | 1017.8 |
| 20260902054612 | 71 | 88 | 0.0 | 6.0 | 0.00 | 0.00 | 0.00 | 98 | 1017.8 |
| 20260902053104 | 71 | 107 | 0.0 | 6.0 | 0.00 | 0.00 | 0.00 | 98 | 1017.9 |
| 20260902051557 | 71 | 0 | 1.0 | 4.0 | 0.00 | 0.00 | 0.00 | 98 | 1018.0 |
| 20260902044601 | 72 | 0 | 0.0 | 0.0 | 0.00 | 0.00 | 0.00 | 98 | 1018.1 |
| 20260902043104 | 72 | 0 | 0.0 | 0.0 | 0.00 | 0.00 | 0.00 | 98 | 1018.1 |
| 20260902041555 | 72 | 0 | 0.0 | 0.0 | 0.00 | 0.00 | 0.00 | 98 | 1018.0 |
| 20260902040054 | 72 | 0 | 0.0 | 0.0 | 0.00 | 0.00 | 0.00 | 98 | 1017.8 |
| 20260902034602 | 72 | 0 | 0.0 | 0.0 | 0.00 | 0.00 | 0.00 | 98 | 1017.5 |
| 20260902033106 | 72 | 0 | 0.0 | 0.0 | 0.00 | 0.00 | 0.00 | 98 | 1017.2 |
| 20260902031558 | 72 | 0 | 0.0 | 0.0 | 0.00 | 0.00 | 0.00 | 97 | 1017.3 |
| 20260902024559 | 72 | 0 | 0.0 | 0.0 | 0.00 | 0.00 | 0.00 | 97 | 1017.0 |
| 20260902023055 | 71 | 0 | 0.0 | 0.0 | 0.00 | 0.00 | 0.00 | 97 | 1016.9 |
| 20260902021559 | 71 | 0 | 0.0 | 0.0 | 0.00 | 0.00 | 0.00 | 96 | 1016.5 |
| 20260902020100 | 71 | 0 | 0.0 | 0.0 | 0.00 | 0.00 | 0.00 | 96 | 1016.8 |
| 20260902014555 | 71 | 0 | 0.0 | 6.0 | 0.00 | 0.00 | 0.00 | 95 | 1016.3 |
| 20260902013104 | 71 | 0 | 0.0 | 0.0 | 0.00 | 0.00 | 0.00 | 94 | 1015.3 |
| 20260902011601 | 71 | 0 | 0.0 | 0.0 | 0.00 | 0.00 | 0.00 | 93 | 1014.6 |
| 20260902010105 | 71 | 0 | 0.0 | 0.0 | 0.00 | 0.00 | 0.00 | 92 | 1014.7 |
| 20260902004556 | 72 | 0 | 0.0 | 0.0 | 0.00 | 0.00 | 0.00 | 90 | 1014.9 |
| 20260902003103 | 73 | 0 | 0.0 | 8.0 | 0.00 | 0.00 | 0.00 | 87 | 1014.9 |
| 20260902001557 | 76 | 276 | 1.0 | 9.0 | 0.00 | 0.00 | 0.00 | 84 | 1015.4 |
| 20260902000056 | 80 | 0 | 0.0 | 0.0 | 0.00 | 0.00 | 0.00 | 85 | 1014.2 |
| 20260901234611 | 81 | 0 | 0.0 | 0.0 | 0.00 | 0.00 | 0.00 | 82 | 1013.8 |
| 20260901233111 | 81 | 0 | 0.0 | 0.0 | 0.00 | 0.00 | 0.00 | 80 | 1014.2 |
| 20260901231606 | 82 | 0 | 0.0 | 0.0 | 0.00 | 0.00 | 0.00 | 79 | 1013.8 |
| 20260901230106 | 83 | 0 | 0.0 | 0.0 | 0.00 | 0.00 | 0.00 | 76 | 1013.9 |
| 20260901224600 | 84 | 0 | 0.0 | 0.0 | 0.00 | 0.00 | 0.00 | 73 | 1013.8 |
| 20260901223055 | 85 | 0 | 0.0 | 3.0 | 0.00 | 0.00 | 0.00 | 71 | 1013.8 |
| 20260901221617 | 86 | 0 | 0.0 | 4.0 | 0.00 | 0.00 | 0.00 | 69 | 1013.6 |
| 20260901220125 | 87 | 0 | 0.0 | 3.0 | 0.00 | 0.00 | 0.00 | 67 | 1013.7 |
| 20260901214555 | 87 | 0 | 0.0 | 6.0 | 0.00 | 0.00 | 0.00 | 66 | 1013.8 |
| 20260901213110 | 88 | 0 | 0.0 | 6.0 | 0.00 | 0.00 | 0.00 | 66 | 1014.2 |
| 20260901211558 | 87 | 201 | 0.0 | 7.0 | 0.00 | 0.00 | 0.00 | 66 | 1014.0 |
| 20260901210106 | 87 | 0 | 0.0 | 8.0 | 0.00 | 0.00 | 0.00 | 65 | 1014.0 |
| 20260901204601 | 88 | 0 | 2.0 | 9.0 | 0.00 | 0.00 | 0.00 | 63 | 1014.1 |
| 20260901203106 | 88 | 0 | 0.0 | 6.0 | 0.00 | 0.00 | 0.00 | 64 | 1014.0 |
| 20260901201557 | 88 | 219 | 0.0 | 7.0 | 0.00 | 0.00 | 0.00 | 63 | 1014.2 |
| 20260901200056 | 88 | 0 | 1.0 | 9.0 | 0.00 | 0.00 | 0.00 | 65 | 1014.2 |
| 20260901194552 | 87 | 0 | 0.0 | 7.0 | 0.00 | 0.00 | 0.00 | 68 | 1014.4 |
| 20260901193104 | 86 | 0 | 0.0 | 6.0 | 0.00 | 0.00 | 0.00 | 69 | 1014.5 |
| 20260901191614 | 86 | 0 | 0.0 | 8.0 | 0.00 | 0.00 | 0.00 | 67 | 1014.5 |
| 20260901184612 | 87 | 181 | 1.0 | 7.0 | 0.00 | 0.00 | 0.00 | 66 | 1014.9 |
| 20260901183107 | 86 | 202 | 0.0 | 5.0 | 0.00 | 0.00 | 0.00 | 68 | 1015.0 |
| 20260901181601 | 85 | 0 | 2.0 | 7.0 | 0.00 | 0.00 | 0.00 | 69 | 1015.0 |
| 20260901174603 | 85 | 0 | 0.0 | 4.0 | 0.00 | 0.00 | 0.00 | 69 | 1015.3 |
| 20260901173103 | 84 | 0 | 1.0 | 7.0 | 0.00 | 0.00 | 0.00 | 73 | 1015.2 |
| 20260901171610 | 83 | 199 | 0.0 | 5.0 | 0.00 | 0.00 | 0.00 | 75 | 1015.5 |
| 20260901170104 | 82 | 0 | 1.0 | 8.0 | 0.00 | 0.00 | 0.00 | 77 | 1015.5 |
| 20260901164556 | 80 | 0 | 0.0 | 5.0 | 0.00 | 0.00 | 0.00 | 80 | 1015.8 |
| 20260901163106 | 79 | 0 | 0.0 | 5.0 | 0.00 | 0.00 | 0.00 | 83 | 1016.2 |
| 20260901161557 | 78 | 0 | 0.0 | 1.0 | 0.00 | 0.00 | 0.00 | 83 | 1016.3 |
| 20260901160106 | 78 | 0 | 0.0 | 4.0 | 0.00 | 0.00 | 0.00 | 84 | 1016.4 |
| 20260901154557 | 77 | 0 | 0.0 | 6.0 | 0.00 | 0.00 | 0.00 | 86 | 1016.4 |
| 20260901153105 | 77 | 0 | 0.0 | 0.0 | 0.00 | 0.00 | 0.00 | 87 | 1016.4 |
| 20260901151554 | 77 | 0 | 0.0 | 0.0 | 0.00 | 0.00 | 0.00 | 86 | 1016.5 |
| 20260901144604 | 77 | 0 | 0.0 | 1.0 | 0.00 | 0.00 | 0.00 | 87 | 1016.4 |
| 20260901143103 | 76 | 0 | 2.0 | 6.0 | 0.00 | 0.00 | 0.00 | 90 | 1016.2 |